sat.trackr.live / text

‹ back to catalog

STARLINK-5519

NORAD 57223 · 2023-094F

PAYLOAD ACTIVE UNKNOWN

§ Identity

Operator
Country
US
Launch date
2023-07-07
Launch site
AFWTR
Launch vehicle
Mass (kg)
RCS (m²)

Purposes: comms

External: N2YO · Heavens-Above · Gunter

§ Orbital elements

Epoch: 2026-09-20T07:34:45.025824Z

Period
94.27 min
Inclination
43.0041°
Eccentricity
0.0001912
Mean motion
15.27576456 rev/d
Perigee alt
481.7 km
Apogee alt
484.4 km
Semi-major
6,861.2 km
B*
1.4798e-5
RAAN
14.7629°
Arg perigee
274.7695°
Mean anomaly
85.2939°
Rev number
17,684

§ Raw data

STARLINK-55191 57223U 23094F   26263.31579891  .00000145  00000+0  14798-4 0  99912 57223  43.0041  14.7629 0001912 274.7695  85.2939 15.27576456176845

JSON: /api/v1/satellites/57223 · /tle

For live sub-satellite position, see the globe view (requires WebGL).

§ Visibility from observer

Set your observer location to see the next 7 days of passes ≥ 10°. The values pass through the URL so the page stays shareable.

No JS? Fill the form by hand. The geolocation button needs JavaScript.